Location: Boiro
(42.6475°N, 8.8834°W)
Time: 17:21:42
(UTC+01:00)

Transit 2A Rocket - Pass Details

Date: 01 December 2021
Orbit: 584 x 918 km, 66.7° (Epoch: 19 January)

Event Time Altitude Azimuth Distance (km) Brightness Sun altitude
Rises 18:08:20 0° 331° (NNW) 3,563 8.5 -1.7°
Reaches altitude 10° 18:10:58 10° 336° (NNW) 2,609 7.7 -2.1°
Maximum altitude 18:16:59 58° 55° (NE) 1,031 5.4 -3.1°
Drops below altitude 10° 18:22:39 10° 134° (SE) 2,460 7.4 -4.0°
Sets 18:25:04 0° 138° (SE) 3,346 8.1 -4.4°
